Jeju International Airport
RKPC : now visible

Airfield :











YOU CAN JOIN US ON...

 
LOGIN :

Register | Disclaimer

   EN    FR    IT 

 









Legend :    VFR   Marginal VFR   IFR   Intensive IFR   Very Intensive IFR
Visi :
Ceiling :
>= 8 km
>= 3000ft
5 to 8 km
1000 to 3000 ft
1500m to 5 km
500 to 1000 ft
800 to 1500m
200 to 500 ft
< 800m
< 200 ft
Symbols :   Thunderstorms  Fog  Heavy snow  Heavy precipitations  Wind > 20 kt







- Airport Elevation : 118 ft
- IATA code : CJU


RKPC - Jeju International

CURRENT METAR :
  • 210600Z 27009KT 250V310 CAVOK 21/10 Q1009 NOSIG

EXPIRED METARs :
  • 210500Z 27010KT 250V320 CAVOK 21/10 Q1010 NOSIG
  • 210400Z 27010KT 250V310 CAVOK 20/09 Q1010 NOSIG

TAF TAF RKPC
Valid from the 21 at 06:00 until the 22 at 12:00 UTC


210500Z 2106/2212 27011KT CAVOK TN17/2121Z TX25/2205Z
BECMG 2109/2110 21010KT
BECMG 2123/2124 25015G25KT
BECMG 2208/2209 21008KT
RKRR FIR / Asia



MET'MAP, your aeronautical weather chart ! - Copyright ORBIFLY December 2007 - Disclaimer

ORBIFLY MET'MAP TEAM :

Programming & Development : Alexandra Zaïnal
Concept & Development : Baudouin d'Aumeries
Co-Development & Prog : Marc-Olivier Méhu
Technical & hardware support : Manuel Goepfert

Contact : metmap@orbifly.com




SOURCES & CREDITS :

   NOAA       Earth
Advisory